Location: Izdebno
(52.6670°N, 16.2170°E)
Time: 07:06:33
(UTC+02:00)

Vanguard 2 Rocket - Pass Details

Date: 24 February 2024
Orbit: 555 x 3307 km, 32.9° (Epoch: 24 April)

Event Time Altitude Azimuth Distance (km) Brightness Sun altitude
Rises 15:36:46 0° 233° (SW) 4,759 12.6 13.7°
Reaches altitude 10° 15:39:55 10° 223° (SW) 4,125 12.5 13.3°
Maximum altitude 15:49:52 32° 166° (SSE) 3,596 10.3 12.0°
Drops below altitude 10° 16:04:19 10° 113° (ESE) 6,018 10.8 10.2°
Sets 16:10:10 0° 105° (ESE) 7,226 11.1 9.4°
